owner,sensor,date,latitude,longitude,vertical_datum,wind_speed,wind_to_direction,wind_speed_of_gust,qcFlag 
COMPS,ioos:station:USF.COMPS:NFB:1,2015-09-01T00:00:00Z,25.0840,-81.0960,6.0,4.07,351.48,4.7,'1111122,1111122,1111122' 
COMPS,ioos:station:USF.COMPS:NFB:1,2015-09-01T00:06:00Z,25.0840,-81.0960,6.0,3.58,353.92,4.31,'1111122,1111122,1111122' 
COMPS,ioos:station:USF.COMPS:NFB:1,2015-09-01T00:12:00Z,25.0840,-81.0960,6.0,3.44,359.06,4.01,'1111122,1111122,1111122' 
COMPS,ioos:station:USF.COMPS:NFB:1,2015-09-01T00:18:00Z,25.0840,-81.0960,6.0,2.94,5.68,3.91,'1111122,1111122,1111122' 
COMPS,ioos:station:USF.COMPS:NFB:1,2015-09-01T00:24:00Z,25.0840,-81.0960,6.0,2.53,10.28,3.52,'1111122,1111122,1111122' 
COMPS,ioos:station:USF.COMPS:NFB:1,2015-09-01T00:30:00Z,25.0840,-81.0960,6.0,2.65,13.84,3.13,'1111122,1111122,1111122' 
COMPS,ioos:station:USF.COMPS:NFB:1,2015-09-01T00:36:00Z,25.0840,-81.0960,6.0,2.5,16.68,3.03,'1111122,1111122,1111122' 
COMPS,ioos:station:USF.COMPS:NFB:1,2015-09-01T00:42:00Z,25.0840,-81.0960,6.0,2.07,21.47,2.64,'1111122,1111122,1111122' 
COMPS,ioos:station:USF.COMPS:NFB:1,2015-09-01T00:48:00Z,25.0840,-81.0960,6.0,2.37,30.57,2.93,'1111122,1111122,1111122' 
COMPS,ioos:station:USF.COMPS:NFB:1,2015-09-01T00:54:00Z,25.0840,-81.0960,6.0,2.28,32.59,2.74,'1111122,1111122,1111122' 
COMPS,ioos:station:USF.COMPS:NFB:1,2015-09-01T01:00:00Z,25.0840,-81.0960,6.0,2.22,31.61,2.93,'1111122,1111122,1111122' 
COMPS,ioos:station:USF.COMPS:NFB:1,2015-09-01T01:06:00Z,25.0840,-81.0960,6.0,1.83,25.62,2.35,'1111122,1111122,1111122' 
COMPS,ioos:station:USF.COMPS:NFB:1,2015-09-01T01:12:00Z,25.0840,-81.0960,6.0,1.79,29.82,2.05,'1111122,1111122,1111122' 
COMPS,ioos:station:USF.COMPS:NFB:1,2015-09-01T01:18:00Z,25.0840,-81.0960,6.0,1.42,49.63,1.95,'1111122,1111122,1111122' 
COMPS,ioos:station:USF.COMPS:NFB:1,2015-09-01T01:24:00Z,25.0840,-81.0960,6.0,1.08,57.27,1.76,'1111122,1111122,1111122' 
COMPS,ioos:station:USF.COMPS:NFB:1,2015-09-01T01:30:00Z,25.0840,-81.0960,6.0,1.85,38.27,2.45,'1111122,1111122,1111122' 
COMPS,ioos:station:USF.COMPS:NFB:1,2015-09-01T01:36:00Z,25.0840,-81.0960,6.0,1.98,20.84,2.45,'1111122,1111122,1111122' 
COMPS,ioos:station:USF.COMPS:NFB:1,2015-09-01T01:42:00Z,25.0840,-81.0960,6.0,1.81,25.84,2.25,'1111122,1111122,1111122' 
COMPS,ioos:station:USF.COMPS:NFB:1,2015-09-01T01:48:00Z,25.0840,-81.0960,6.0,1.78,41.21,2.15,'1111122,1111122,1111122' 
COMPS,ioos:station:USF.COMPS:NFB:1,2015-09-01T01:54:00Z,25.0840,-81.0960,6.0,1.64,45.25,2.05,'1111122,1111122,1111122' 
COMPS,ioos:station:USF.COMPS:NFB:1,2015-09-01T02:00:00Z,25.0840,-81.0960,6.0,1.89,42.92,2.25,'1111122,1111122,1111122' 
COMPS,ioos:station:USF.COMPS:NFB:1,2015-09-01T02:06:00Z,25.0840,-81.0960,6.0,1.91,54.73,2.25,'1111122,1111122,1111122' 
COMPS,ioos:station:USF.COMPS:NFB:1,2015-09-01T02:12:00Z,25.0840,-81.0960,6.0,1.75,73.26,2.05,'1111122,1111122,1111122' 
COMPS,ioos:station:USF.COMPS:NFB:1,2015-09-01T02:18:00Z,25.0840,-81.0960,6.0,1.52,67.71,1.86,'1111122,1111122,1111122' 
COMPS,ioos:station:USF.COMPS:NFB:1,2015-09-01T02:24:00Z,25.0840,-81.0960,6.0,1.4,30.13,1.66,'1111122,1111122,1111122' 
COMPS,ioos:station:USF.COMPS:NFB:1,2015-09-01T02:30:00Z,25.0840,-81.0960,6.0,1.56,20.1,1.95,'1111122,1111122,1111122' 
COMPS,ioos:station:USF.COMPS:NFB:1,2015-09-01T02:36:00Z,25.0840,-81.0960,6.0,1.48,49.09,1.76,'1111122,1111122,1111122' 
COMPS,ioos:station:USF.COMPS:NFB:1,2015-09-01T02:42:00Z,25.0840,-81.0960,6.0,1.34,64.07,1.66,'1111122,1111122,1111122' 
COMPS,ioos:station:USF.COMPS:NFB:1,2015-09-01T02:48:00Z,25.0840,-81.0960,6.0,1.56,43.32,1.86,'1111122,1111122,1111122' 
COMPS,ioos:station:USF.COMPS:NFB:1,2015-09-01T02:54:00Z,25.0840,-81.0960,6.0,1.82,34.45,2.05,'1111122,1111122,1111122' 
COMPS,ioos:station:USF.COMPS:NFB:1,2015-09-01T03:00:00Z,25.0840,-81.0960,6.0,2.26,40.1,2.74,'1111122,1111122,1111122' 
COMPS,ioos:station:USF.COMPS:NFB:1,2015-09-01T03:06:00Z,25.0840,-81.0960,6.0,2.31,39.4,2.54,'1111122,1111122,1111122' 
COMPS,ioos:station:USF.COMPS:NFB:1,2015-09-01T03:12:00Z,25.0840,-81.0960,6.0,2.54,33.17,2.84,'1111122,1111122,1111122' 
COMPS,ioos:station:USF.COMPS:NFB:1,2015-09-01T03:18:00Z,25.0840,-81.0960,6.0,2.34,26.65,2.64,'1111122,1111122,1111122' 
COMPS,ioos:station:USF.COMPS:NFB:1,2015-09-01T03:24:00Z,25.0840,-81.0960,6.0,2.51,31.38,2.84,'1111122,1111122,1111122' 
COMPS,ioos:station:USF.COMPS:NFB:1,2015-09-01T03:30:00Z,25.0840,-81.0960,6.0,2.47,45.11,2.84,'1111122,1111122,1111122' 
COMPS,ioos:station:USF.COMPS:NFB:1,2015-09-01T03:36:00Z,25.0840,-81.0960,6.0,2.22,43.57,2.64,'1111122,1111122,1111122' 
COMPS,ioos:station:USF.COMPS:NFB:1,2015-09-01T03:42:00Z,25.0840,-81.0960,6.0,1.99,44.44,2.35,'1111122,1111122,1111122' 
COMPS,ioos:station:USF.COMPS:NFB:1,2015-09-01T03:48:00Z,25.0840,-81.0960,6.0,2.53,42.33,3.03,'1111122,1111122,1111122' 
COMPS,ioos:station:USF.COMPS:NFB:1,2015-09-01T03:54:00Z,25.0840,-81.0960,6.0,2.55,36.41,2.93,'1111122,1111122,1111122' 
COMPS,ioos:station:USF.COMPS:NFB:1,2015-09-01T04:00:00Z,25.0840,-81.0960,6.0,2.72,53.06,3.03,'1111122,1111122,1111122' 
COMPS,ioos:station:USF.COMPS:NFB:1,2015-09-01T04:06:00Z,25.0840,-81.0960,6.0,2.86,57.92,3.23,'1111122,1111122,1111122' 
COMPS,ioos:station:USF.COMPS:NFB:1,2015-09-01T04:12:00Z,25.0840,-81.0960,6.0,2.66,55.5,3.23,'1111122,1111122,1111122' 
COMPS,ioos:station:USF.COMPS:NFB:1,2015-09-01T04:18:00Z,25.0840,-81.0960,6.0,2.73,45.0,3.13,'1111122,1111122,1111122' 
COMPS,ioos:station:USF.COMPS:NFB:1,2015-09-01T04:24:00Z,25.0840,-81.0960,6.0,2.68,35.74,3.03,'1111122,1111122,1111122' 
COMPS,ioos:station:USF.COMPS:NFB:1,2015-09-01T04:30:00Z,25.0840,-81.0960,6.0,2.67,40.55,3.03,'1111122,1111122,1111122' 
COMPS,ioos:station:USF.COMPS:NFB:1,2015-09-01T04:36:00Z,25.0840,-81.0960,6.0,2.44,33.91,2.74,'1111122,1111122,1111122' 
COMPS,ioos:station:USF.COMPS:NFB:1,2015-09-01T04:42:00Z,25.0840,-81.0960,6.0,2.69,45.44,3.13,'1111122,1111122,1111122' 
COMPS,ioos:station:USF.COMPS:NFB:1,2015-09-01T04:48:00Z,25.0840,-81.0960,6.0,2.78,54.07,3.33,'1111122,1111122,1111122' 
COMPS,ioos:station:USF.COMPS:NFB:1,2015-09-01T04:54:00Z,25.0840,-81.0960,6.0,3.07,52.12,3.42,'1111122,1111122,1111122' 
COMPS,ioos:station:USF.COMPS:NFB:1,2015-09-01T05:00:00Z,25.0840,-81.0960,6.0,2.82,57.71,3.33,'1111122,1111122,1111122' 
COMPS,ioos:station:USF.COMPS:NFB:1,2015-09-01T05:06:00Z,25.0840,-81.0960,6.0,2.6,60.27,3.13,'1111122,1111122,1111122' 
COMPS,ioos:station:USF.COMPS:NFB:1,2015-09-01T05:12:00Z,25.0840,-81.0960,6.0,2.45,58.11,2.93,'1111122,1111122,1111122' 
COMPS,ioos:station:USF.COMPS:NFB:1,2015-09-01T05:18:00Z,25.0840,-81.0960,6.0,3.0,53.77,3.52,'1111122,1111122,1111122' 
COMPS,ioos:station:USF.COMPS:NFB:1,2015-09-01T05:24:00Z,25.0840,-81.0960,6.0,3.56,57.61,4.11,'1111122,1111122,1111122' 
COMPS,ioos:station:USF.COMPS:NFB:1,2015-09-01T05:30:00Z,25.0840,-81.0960,6.0,4.19,50.54,4.9,'1111122,1111122,1111122' 
COMPS,ioos:station:USF.COMPS:NFB:1,2015-09-01T05:36:00Z,25.0840,-81.0960,6.0,4.6,49.33,5.19,'1111122,1111122,1111122' 
COMPS,ioos:station:USF.COMPS:NFB:1,2015-09-01T05:42:00Z,25.0840,-81.0960,6.0,5.32,53.33,5.87,'1111122,1111122,1111122' 
COMPS,ioos:station:USF.COMPS:NFB:1,2015-09-01T05:48:00Z,25.0840,-81.0960,6.0,5.09,52.94,5.87,'1111122,1111122,1111122' 
COMPS,ioos:station:USF.COMPS:NFB:1,2015-09-01T05:54:00Z,25.0840,-81.0960,6.0,4.96,53.03,5.39,'1111122,1111122,1111122' 
COMPS,ioos:station:USF.COMPS:NFB:1,2015-09-01T06:00:00Z,25.0840,-81.0960,6.0,4.58,52.47,5.19,'1111122,1111122,1111122' 
COMPS,ioos:station:USF.COMPS:NFB:1,2015-09-01T06:06:00Z,25.0840,-81.0960,6.0,4.1,62.03,4.9,'1111122,1111122,1111122' 
COMPS,ioos:station:USF.COMPS:NFB:1,2015-09-01T06:12:00Z,25.0840,-81.0960,6.0,4.12,63.13,4.6,'1111122,1111122,1111122' 
COMPS,ioos:station:USF.COMPS:NFB:1,2015-09-01T06:18:00Z,25.0840,-81.0960,6.0,4.15,60.86,4.8,'1111122,1111122,1111122' 
COMPS,ioos:station:USF.COMPS:NFB:1,2015-09-01T06:24:00Z,25.0840,-81.0960,6.0,4.82,55.44,5.48,'1111122,1111122,1111122' 
COMPS,ioos:station:USF.COMPS:NFB:1,2015-09-01T06:30:00Z,25.0840,-81.0960,6.0,4.61,55.47,5.29,'1111122,1111122,1111122' 
COMPS,ioos:station:USF.COMPS:NFB:1,2015-09-01T06:36:00Z,25.0840,-81.0960,6.0,3.93,53.98,4.7,'1111122,1111122,1111122' 
COMPS,ioos:station:USF.COMPS:NFB:1,2015-09-01T06:42:00Z,25.0840,-81.0960,6.0,3.67,45.44,4.8,'1111122,1111122,1111122' 
COMPS,ioos:station:USF.COMPS:NFB:1,2015-09-01T06:48:00Z,25.0840,-81.0960,6.0,3.3,35.09,3.91,'1111122,1111122,1111122' 
COMPS,ioos:station:USF.COMPS:NFB:1,2015-09-01T06:54:00Z,25.0840,-81.0960,6.0,3.62,43.13,4.31,'1111122,1111122,1111122' 
COMPS,ioos:station:USF.COMPS:NFB:1,2015-09-01T07:00:00Z,25.0840,-81.0960,6.0,3.95,57.2,4.8,'1111122,1111122,1111122' 
COMPS,ioos:station:USF.COMPS:NFB:1,2015-09-01T07:06:00Z,25.0840,-81.0960,6.0,3.96,70.76,5.09,'1111122,1111122,1111122' 
COMPS,ioos:station:USF.COMPS:NFB:1,2015-09-01T07:12:00Z,25.0840,-81.0960,6.0,3.27,73.55,3.82,'1111122,1111122,1111122' 
COMPS,ioos:station:USF.COMPS:NFB:1,2015-09-01T07:18:00Z,25.0840,-81.0960,6.0,3.05,79.61,3.62,'1111122,1111122,1111122' 
COMPS,ioos:station:USF.COMPS:NFB:1,2015-09-01T07:24:00Z,25.0840,-81.0960,6.0,2.48,84.13,2.93,'1111122,1111122,1111122' 
COMPS,ioos:station:USF.COMPS:NFB:1,2015-09-01T07:30:00Z,25.0840,-81.0960,6.0,2.76,96.07,3.13,'1111122,1111122,1111122' 
COMPS,ioos:station:USF.COMPS:NFB:1,2015-09-01T07:36:00Z,25.0840,-81.0960,6.0,2.98,99.89,3.62,'1111122,1111122,1111122' 
COMPS,ioos:station:USF.COMPS:NFB:1,2015-09-01T07:42:00Z,25.0840,-81.0960,6.0,2.89,95.5,3.42,'1111122,1111122,1111122' 
COMPS,ioos:station:USF.COMPS:NFB:1,2015-09-01T07:48:00Z,25.0840,-81.0960,6.0,3.19,99.03,3.72,'1111122,1111122,1111122' 
COMPS,ioos:station:USF.COMPS:NFB:1,2015-09-01T07:54:00Z,25.0840,-81.0960,6.0,3.13,95.07,3.62,'1111122,1111122,1111122' 
COMPS,ioos:station:USF.COMPS:NFB:1,2015-09-01T08:00:00Z,25.0840,-81.0960,6.0,3.1,91.48,3.52,'1111122,1111122,1111122' 
COMPS,ioos:station:USF.COMPS:NFB:1,2015-09-01T08:06:00Z,25.0840,-81.0960,6.0,2.93,82.19,3.52,'1111122,1111122,1111122' 
COMPS,ioos:station:USF.COMPS:NFB:1,2015-09-01T08:12:00Z,25.0840,-81.0960,6.0,2.73,78.94,3.03,'1111122,1111122,1111122' 
COMPS,ioos:station:USF.COMPS:NFB:1,2015-09-01T08:18:00Z,25.0840,-81.0960,6.0,3.07,78.44,3.72,'1111122,1111122,1111122' 
COMPS,ioos:station:USF.COMPS:NFB:1,2015-09-01T08:24:00Z,25.0840,-81.0960,6.0,3.01,78.13,3.62,'1111122,1111122,1111122' 
COMPS,ioos:station:USF.COMPS:NFB:1,2015-09-01T08:30:00Z,25.0840,-81.0960,6.0,3.25,76.46,3.82,'1111122,1111122,1111122' 
COMPS,ioos:station:USF.COMPS:NFB:1,2015-09-01T08:36:00Z,25.0840,-81.0960,6.0,3.19,78.49,3.62,'1111122,1111122,1111122' 
COMPS,ioos:station:USF.COMPS:NFB:1,2015-09-01T08:42:00Z,25.0840,-81.0960,6.0,3.46,80.49,4.01,'1111122,1111122,1111122' 
COMPS,ioos:station:USF.COMPS:NFB:1,2015-09-01T08:48:00Z,25.0840,-81.0960,6.0,3.34,79.49,4.01,'1111122,1111122,1111122' 
COMPS,ioos:station:USF.COMPS:NFB:1,2015-09-01T08:54:00Z,25.0840,-81.0960,6.0,3.22,75.23,3.62,'1111122,1111122,1111122' 
COMPS,ioos:station:USF.COMPS:NFB:1,2015-09-01T09:00:00Z,25.0840,-81.0960,6.0,3.61,71.22,4.11,'1111122,1111122,1111122' 
COMPS,ioos:station:USF.COMPS:NFB:1,2015-09-01T09:06:00Z,25.0840,-81.0960,6.0,3.46,62.55,4.01,'1111122,1111122,1111122' 
COMPS,ioos:station:USF.COMPS:NFB:1,2015-09-01T09:12:00Z,25.0840,-81.0960,6.0,2.95,66.58,3.62,'1111122,1111122,1111122' 
COMPS,ioos:station:USF.COMPS:NFB:1,2015-09-01T09:18:00Z,25.0840,-81.0960,6.0,2.67,71.89,3.42,'1111122,1111122,1111122' 
COMPS,ioos:station:USF.COMPS:NFB:1,2015-09-01T09:24:00Z,25.0840,-81.0960,6.0,2.78,53.57,3.91,'1111122,1111122,1111122' 
COMPS,ioos:station:USF.COMPS:NFB:1,2015-09-01T09:30:00Z,25.0840,-81.0960,6.0,3.19,54.53,3.91,'1111122,1111122,1111122' 
COMPS,ioos:station:USF.COMPS:NFB:1,2015-09-01T09:36:00Z,25.0840,-81.0960,6.0,3.3,53.77,3.82,'1111122,1111122,1111122' 
COMPS,ioos:station:USF.COMPS:NFB:1,2015-09-01T09:42:00Z,25.0840,-81.0960,6.0,3.51,58.54,4.01,'1111122,1111122,1111122' 
COMPS,ioos:station:USF.COMPS:NFB:1,2015-09-01T09:48:00Z,25.0840,-81.0960,6.0,3.74,57.66,4.41,'1111122,1111122,1111122' 
COMPS,ioos:station:USF.COMPS:NFB:1,2015-09-01T09:54:00Z,25.0840,-81.0960,6.0,3.76,57.97,4.11,'1111122,1111122,1111122' 
COMPS,ioos:station:USF.COMPS:NFB:1,2015-09-01T10:00:00Z,25.0840,-81.0960,6.0,3.44,59.41,3.91,'1111122,1111122,1111122' 
COMPS,ioos:station:USF.COMPS:NFB:1,2015-09-01T10:06:00Z,25.0840,-81.0960,6.0,3.12,78.07,3.72,'1111122,1111122,1111122' 
COMPS,ioos:station:USF.COMPS:NFB:1,2015-09-01T10:12:00Z,25.0840,-81.0960,6.0,3.09,83.66,3.42,'1111122,1111122,1111122' 
COMPS,ioos:station:USF.COMPS:NFB:1,2015-09-01T10:18:00Z,25.0840,-81.0960,6.0,2.62,81.1,2.93,'1111122,1111122,1111122' 
COMPS,ioos:station:USF.COMPS:NFB:1,2015-09-01T10:24:00Z,25.0840,-81.0960,6.0,2.82,96.91,3.72,'1111122,1111122,1111122' 
COMPS,ioos:station:USF.COMPS:NFB:1,2015-09-01T10:30:00Z,25.0840,-81.0960,6.0,2.6,98.09,3.62,'1111122,1111122,1111122' 
COMPS,ioos:station:USF.COMPS:NFB:1,2015-09-01T10:36:00Z,25.0840,-81.0960,6.0,4.72,132.54,5.68,'1111122,1111122,1111122' 
COMPS,ioos:station:USF.COMPS:NFB:1,2015-09-01T10:42:00Z,25.0840,-81.0960,6.0,4.9,136.52,5.87,'1111122,1111122,1111122' 
COMPS,ioos:station:USF.COMPS:NFB:1,2015-09-01T10:48:00Z,25.0840,-81.0960,6.0,5.0,141.01,6.27,'1111122,1111122,1111122' 
COMPS,ioos:station:USF.COMPS:NFB:1,2015-09-01T10:54:00Z,25.0840,-81.0960,6.0,5.29,140.78,6.46,'1111122,1111122,1111122' 
COMPS,ioos:station:USF.COMPS:NFB:1,2015-09-01T11:00:00Z,25.0840,-81.0960,6.0,5.12,135.61,6.17,'1111122,1111122,1111122' 
COMPS,ioos:station:USF.COMPS:NFB:1,2015-09-01T11:06:00Z,25.0840,-81.0960,6.0,5.43,139.47,6.17,'1111122,1111122,1111122' 
COMPS,ioos:station:USF.COMPS:NFB:1,2015-09-01T11:12:00Z,25.0840,-81.0960,6.0,5.0,140.35,5.87,'1111122,1111122,1111122' 
COMPS,ioos:station:USF.COMPS:NFB:1,2015-09-01T11:18:00Z,25.0840,-81.0960,6.0,5.63,136.21,6.56,'1111122,1111122,1111122' 
COMPS,ioos:station:USF.COMPS:NFB:1,2015-09-01T11:24:00Z,25.0840,-81.0960,6.0,5.14,133.06,5.97,'1111122,1111122,1111122' 
COMPS,ioos:station:USF.COMPS:NFB:1,2015-09-01T11:30:00Z,25.0840,-81.0960,6.0,5.03,133.64,6.07,'1111122,1111122,1111122' 
COMPS,ioos:station:USF.COMPS:NFB:1,2015-09-01T11:36:00Z,25.0840,-81.0960,6.0,4.95,132.79,5.68,'1111122,1111122,1111122' 
COMPS,ioos:station:USF.COMPS:NFB:1,2015-09-01T11:42:00Z,25.0840,-81.0960,6.0,5.0,139.06,5.78,'1111122,1111122,1111122' 
COMPS,ioos:station:USF.COMPS:NFB:1,2015-09-01T11:48:00Z,25.0840,-81.0960,6.0,5.19,145.99,5.97,'1111122,1111122,1111122' 
COMPS,ioos:station:USF.COMPS:NFB:1,2015-09-01T11:54:00Z,25.0840,-81.0960,6.0,4.75,140.17,5.39,'1111122,1111122,1111122' 
COMPS,ioos:station:USF.COMPS:NFB:1,2015-09-01T12:00:00Z,25.0840,-81.0960,6.0,4.98,141.2,5.97,'1111122,1111122,1111122' 
COMPS,ioos:station:USF.COMPS:NFB:1,2015-09-01T12:06:00Z,25.0840,-81.0960,6.0,4.97,139.9,5.87,'1111122,1111122,1111122' 
COMPS,ioos:station:USF.COMPS:NFB:1,2015-09-01T12:12:00Z,25.0840,-81.0960,6.0,5.01,137.93,5.78,'1111122,1111122,1111122' 
COMPS,ioos:station:USF.COMPS:NFB:1,2015-09-01T12:18:00Z,25.0840,-81.0960,6.0,4.68,139.23,5.39,'1111122,1111122,1111122' 
COMPS,ioos:station:USF.COMPS:NFB:1,2015-09-01T12:24:00Z,25.0840,-81.0960,6.0,4.13,140.64,4.8,'1111122,1111122,1111122' 
COMPS,ioos:station:USF.COMPS:NFB:1,2015-09-01T12:30:00Z,25.0840,-81.0960,6.0,3.98,146.72,4.41,'1111122,1111122,1111122' 
COMPS,ioos:station:USF.COMPS:NFB:1,2015-09-01T12:36:00Z,25.0840,-81.0960,6.0,3.96,154.81,4.8,'1111122,1111122,1111122' 
COMPS,ioos:station:USF.COMPS:NFB:1,2015-09-01T12:42:00Z,25.0840,-81.0960,6.0,4.11,143.69,4.8,'1111122,1111122,1111122' 
COMPS,ioos:station:USF.COMPS:NFB:1,2015-09-01T12:48:00Z,25.0840,-81.0960,6.0,4.03,143.02,4.6,'1111122,1111122,1111122' 
COMPS,ioos:station:USF.COMPS:NFB:1,2015-09-01T12:54:00Z,25.0840,-81.0960,6.0,4.27,140.47,4.9,'1111122,1111122,1111122' 
COMPS,ioos:station:USF.COMPS:NFB:1,2015-09-01T13:00:00Z,25.0840,-81.0960,6.0,4.31,136.8,4.9,'1111122,1111122,1111122' 
COMPS,ioos:station:USF.COMPS:NFB:1,2015-09-01T13:06:00Z,25.0840,-81.0960,6.0,4.72,137.32,5.09,'1111122,1111122,1111122' 
COMPS,ioos:station:USF.COMPS:NFB:1,2015-09-01T13:12:00Z,25.0840,-81.0960,6.0,4.34,135.6,4.8,'1111122,1111122,1111122' 
COMPS,ioos:station:USF.COMPS:NFB:1,2015-09-01T13:18:00Z,25.0840,-81.0960,6.0,4.18,138.74,4.7,'1111122,1111122,1111122' 
COMPS,ioos:station:USF.COMPS:NFB:1,2015-09-01T13:24:00Z,25.0840,-81.0960,6.0,4.04,139.0,5.19,'1111122,1111122,1111122' 
COMPS,ioos:station:USF.COMPS:NFB:1,2015-09-01T13:30:00Z,25.0840,-81.0960,6.0,4.15,137.62,4.7,'1111122,1111122,1111122' 
COMPS,ioos:station:USF.COMPS:NFB:1,2015-09-01T13:36:00Z,25.0840,-81.0960,6.0,3.82,136.44,4.41,'1111122,1111122,1111122' 
COMPS,ioos:station:USF.COMPS:NFB:1,2015-09-01T13:42:00Z,25.0840,-81.0960,6.0,3.62,137.43,4.6,'1111122,1111122,1111122' 
COMPS,ioos:station:USF.COMPS:NFB:1,2015-09-01T13:48:00Z,25.0840,-81.0960,6.0,3.97,135.94,4.5,'1111122,1111122,1111122' 
COMPS,ioos:station:USF.COMPS:NFB:1,2015-09-01T13:54:00Z,25.0840,-81.0960,6.0,3.28,132.47,4.01,'1111122,1111122,1111122' 
COMPS,ioos:station:USF.COMPS:NFB:1,2015-09-01T14:00:00Z,25.0840,-81.0960,6.0,3.61,133.31,4.11,'1111122,1111122,1111122' 
COMPS,ioos:station:USF.COMPS:NFB:1,2015-09-01T14:06:00Z,25.0840,-81.0960,6.0,3.73,132.57,4.21,'1111122,1111122,1111122' 
COMPS,ioos:station:USF.COMPS:NFB:1,2015-09-01T14:12:00Z,25.0840,-81.0960,6.0,4.13,136.23,4.8,'1111122,1111122,1111122' 
COMPS,ioos:station:USF.COMPS:NFB:1,2015-09-01T14:18:00Z,25.0840,-81.0960,6.0,3.64,138.17,4.31,'1111122,1111122,1111122' 
COMPS,ioos:station:USF.COMPS:NFB:1,2015-09-01T14:24:00Z,25.0840,-81.0960,6.0,3.48,144.97,4.11,'1111122,1111122,1111122' 
COMPS,ioos:station:USF.COMPS:NFB:1,2015-09-01T14:30:00Z,25.0840,-81.0960,6.0,4.14,158.4,4.99,'1111122,1111122,1111122' 
COMPS,ioos:station:USF.COMPS:NFB:1,2015-09-01T14:36:00Z,25.0840,-81.0960,6.0,4.56,158.95,5.19,'1111122,1111122,1111122' 
COMPS,ioos:station:USF.COMPS:NFB:1,2015-09-01T14:42:00Z,25.0840,-81.0960,6.0,4.52,146.45,5.09,'1111122,1111122,1111122' 
COMPS,ioos:station:USF.COMPS:NFB:1,2015-09-01T14:48:00Z,25.0840,-81.0960,6.0,4.54,143.76,5.19,'1111122,1111122,1111122' 
COMPS,ioos:station:USF.COMPS:NFB:1,2015-09-01T14:54:00Z,25.0840,-81.0960,6.0,4.72,141.95,5.19,'1111122,1111122,1111122' 
COMPS,ioos:station:USF.COMPS:NFB:1,2015-09-01T15:00:00Z,25.0840,-81.0960,6.0,4.7,141.92,5.68,'1111122,1111122,1111122' 
COMPS,ioos:station:USF.COMPS:NFB:1,2015-09-01T15:06:00Z,25.0840,-81.0960,6.0,4.97,141.85,5.58,'1111122,1111122,1111122' 
COMPS,ioos:station:USF.COMPS:NFB:1,2015-09-01T15:12:00Z,25.0840,-81.0960,6.0,4.76,138.27,5.39,'1111122,1111122,1111122' 
COMPS,ioos:station:USF.COMPS:NFB:1,2015-09-01T15:18:00Z,25.0840,-81.0960,6.0,5.06,141.59,5.68,'1111122,1111122,1111122' 
COMPS,ioos:station:USF.COMPS:NFB:1,2015-09-01T15:24:00Z,25.0840,-81.0960,6.0,4.73,140.89,5.48,'1111122,1111122,1111122' 
COMPS,ioos:station:USF.COMPS:NFB:1,2015-09-01T15:30:00Z,25.0840,-81.0960,6.0,4.66,135.19,5.68,'1111122,1111122,1111122' 
COMPS,ioos:station:USF.COMPS:NFB:1,2015-09-01T15:36:00Z,25.0840,-81.0960,6.0,5.73,129.33,6.56,'1111122,1111122,1111122' 
COMPS,ioos:station:USF.COMPS:NFB:1,2015-09-01T15:42:00Z,25.0840,-81.0960,6.0,5.71,132.08,6.76,'1111122,1111122,1111122' 
COMPS,ioos:station:USF.COMPS:NFB:1,2015-09-01T15:48:00Z,25.0840,-81.0960,6.0,5.55,129.86,6.27,'1111122,1111122,1111122' 
COMPS,ioos:station:USF.COMPS:NFB:1,2015-09-01T15:54:00Z,25.0840,-81.0960,6.0,4.58,129.99,5.29,'1111122,1111122,1111122' 
COMPS,ioos:station:USF.COMPS:NFB:1,2015-09-01T16:00:00Z,25.0840,-81.0960,6.0,4.53,135.14,5.19,'1111122,1111122,1111122' 
COMPS,ioos:station:USF.COMPS:NFB:1,2015-09-01T16:06:00Z,25.0840,-81.0960,6.0,4.54,142.54,5.19,'1111122,1111122,1111122' 
COMPS,ioos:station:USF.COMPS:NFB:1,2015-09-01T16:12:00Z,25.0840,-81.0960,6.0,4.23,146.37,4.99,'1111122,1111122,1111122' 
COMPS,ioos:station:USF.COMPS:NFB:1,2015-09-01T16:18:00Z,25.0840,-81.0960,6.0,3.8,142.21,4.8,'1111122,1111122,1111122' 
COMPS,ioos:station:USF.COMPS:NFB:1,2015-09-01T16:24:00Z,25.0840,-81.0960,6.0,4.0,143.29,4.6,'1111122,1111122,1111122' 
COMPS,ioos:station:USF.COMPS:NFB:1,2015-09-01T16:30:00Z,25.0840,-81.0960,6.0,4.57,138.41,5.48,'1111122,1111122,1111122' 
COMPS,ioos:station:USF.COMPS:NFB:1,2015-09-01T16:36:00Z,25.0840,-81.0960,6.0,4.91,151.3,5.48,'1111122,1111122,1111122' 
COMPS,ioos:station:USF.COMPS:NFB:1,2015-09-01T16:42:00Z,25.0840,-81.0960,6.0,4.62,148.95,5.39,'1111122,1111122,1111122' 
COMPS,ioos:station:USF.COMPS:NFB:1,2015-09-01T16:48:00Z,25.0840,-81.0960,6.0,5.36,144.43,6.27,'1111122,1111122,1111122' 
COMPS,ioos:station:USF.COMPS:NFB:1,2015-09-01T16:54:00Z,25.0840,-81.0960,6.0,4.78,148.24,5.78,'1111122,1111122,1111122' 
COMPS,ioos:station:USF.COMPS:NFB:1,2015-09-01T17:00:00Z,25.0840,-81.0960,6.0,4.66,152.64,5.39,'1111122,1111122,1111122' 
COMPS,ioos:station:USF.COMPS:NFB:1,2015-09-01T17:06:00Z,25.0840,-81.0960,6.0,4.26,155.18,5.29,'1111122,1111122,1111122' 
COMPS,ioos:station:USF.COMPS:NFB:1,2015-09-01T17:12:00Z,25.0840,-81.0960,6.0,3.85,162.77,4.6,'1111122,1111122,1111122' 
COMPS,ioos:station:USF.COMPS:NFB:1,2015-09-01T17:18:00Z,25.0840,-81.0960,6.0,4.16,156.32,4.9,'1111122,1111122,1111122' 
COMPS,ioos:station:USF.COMPS:NFB:1,2015-09-01T17:24:00Z,25.0840,-81.0960,6.0,4.05,154.43,4.9,'1111122,1111122,1111122' 
COMPS,ioos:station:USF.COMPS:NFB:1,2015-09-01T17:30:00Z,25.0840,-81.0960,6.0,3.71,157.76,4.6,'1111122,1111122,1111122' 
COMPS,ioos:station:USF.COMPS:NFB:1,2015-09-01T17:36:00Z,25.0840,-81.0960,6.0,3.84,152.52,4.5,'1111122,1111122,1111122' 
COMPS,ioos:station:USF.COMPS:NFB:1,2015-09-01T17:42:00Z,25.0840,-81.0960,6.0,3.71,156.9,4.5,'1111122,1111122,1111122' 
COMPS,ioos:station:USF.COMPS:NFB:1,2015-09-01T17:48:00Z,25.0840,-81.0960,6.0,3.41,163.24,4.31,'1111122,1111122,1111122' 
COMPS,ioos:station:USF.COMPS:NFB:1,2015-09-01T17:54:00Z,25.0840,-81.0960,6.0,3.51,158.06,4.5,'1111122,1111122,1111122' 
COMPS,ioos:station:USF.COMPS:NFB:1,2015-09-01T18:00:00Z,25.0840,-81.0960,6.0,3.69,162.93,4.41,'1111122,1111122,1111122' 
COMPS,ioos:station:USF.COMPS:NFB:1,2015-09-01T18:06:00Z,25.0840,-81.0960,6.0,3.72,167.07,4.6,'1111122,1111122,1111122' 
COMPS,ioos:station:USF.COMPS:NFB:1,2015-09-01T18:12:00Z,25.0840,-81.0960,6.0,3.45,173.46,4.11,'1111122,1111122,1111122' 
COMPS,ioos:station:USF.COMPS:NFB:1,2015-09-01T18:18:00Z,25.0840,-81.0960,6.0,3.38,159.23,4.21,'1111122,1111122,1111122' 
COMPS,ioos:station:USF.COMPS:NFB:1,2015-09-01T18:24:00Z,25.0840,-81.0960,6.0,2.92,169.24,3.72,'1111122,1111122,1111122' 
COMPS,ioos:station:USF.COMPS:NFB:1,2015-09-01T18:30:00Z,25.0840,-81.0960,6.0,3.54,154.69,5.09,'1111122,1111122,1111122' 
COMPS,ioos:station:USF.COMPS:NFB:1,2015-09-01T18:36:00Z,25.0840,-81.0960,6.0,3.4,153.82,4.11,'1111122,1111122,1111122' 
COMPS,ioos:station:USF.COMPS:NFB:1,2015-09-01T18:42:00Z,25.0840,-81.0960,6.0,2.98,162.54,3.82,'1111122,1111122,1111122' 
COMPS,ioos:station:USF.COMPS:NFB:1,2015-09-01T18:48:00Z,25.0840,-81.0960,6.0,2.92,169.9,4.01,'1111122,1111122,1111122' 
COMPS,ioos:station:USF.COMPS:NFB:1,2015-09-01T18:54:00Z,25.0840,-81.0960,6.0,2.9,176.59,3.82,'1111122,1111122,1111122' 
COMPS,ioos:station:USF.COMPS:NFB:1,2015-09-01T19:00:00Z,25.0840,-81.0960,6.0,2.97,187.79,3.72,'1111122,1111122,1111122' 
COMPS,ioos:station:USF.COMPS:NFB:1,2015-09-01T19:06:00Z,25.0840,-81.0960,6.0,3.16,184.15,3.91,'1111122,1111122,1111122' 
COMPS,ioos:station:USF.COMPS:NFB:1,2015-09-01T19:12:00Z,25.0840,-81.0960,6.0,3.51,189.73,4.31,'1111122,1111122,1111122' 
COMPS,ioos:station:USF.COMPS:NFB:1,2015-09-01T19:18:00Z,25.0840,-81.0960,6.0,3.45,192.83,4.21,'1111122,1111122,1111122' 
COMPS,ioos:station:USF.COMPS:NFB:1,2015-09-01T19:24:00Z,25.0840,-81.0960,6.0,3.31,186.61,4.01,'1111122,1111122,1111122' 
COMPS,ioos:station:USF.COMPS:NFB:1,2015-09-01T19:30:00Z,25.0840,-81.0960,6.0,3.26,186.32,3.82,'1111122,1111122,1111122' 
COMPS,ioos:station:USF.COMPS:NFB:1,2015-09-01T19:36:00Z,25.0840,-81.0960,6.0,3.46,190.11,3.91,'1111122,1111122,1111122' 
COMPS,ioos:station:USF.COMPS:NFB:1,2015-09-01T19:42:00Z,25.0840,-81.0960,6.0,2.93,194.32,3.52,'1111122,1111122,1111122' 